Location: Navajo
(48.7922°N, 105.0603°W)
Time: 03:11:09
(UTC+00:00)

CUBEBUG 2 - Pass Details

Date: 05 July 2022
Orbit: 584 x 693 km, 97.7° (Epoch: 09 August)

Event Time Altitude Azimuth Distance (km) Brightness Sun altitude
Rises 10:16:06 0° 12° (NNE) 2,843 ? -6.7°
Reaches altitude 10° 10:18:15 10° 11° (N) 1,947 ? -6.5°
Maximum altitude 10:22:27 77° 286° (WNW) 631 ? -6.0°
Drops below altitude 10° 10:26:46 10° 200° (SSW) 1,987 ? -5.5°
Enters shadow 10:28:07 - 200° (SSW) 2,550 ? -5.3°
